Regional Weather Roundup
Issued by NWS

Home | Current Version | Previous Version | Graphics & Text | Print | Product List | Glossary On
Versions: 1 2 3 4 5 6 7 8 9 10 11 12 13 14 15 16 17 18 19 20 21 22 23 24 25 26 27 28 29 30 31 32 33 34 35 36 37 38 39 40 41 42 43 44 45 46 47 48 49 50
000
ASUS43 KOAX 291402
RWRNE

WEATHER ROUNDUP FOR NEBRASKA
NATIONAL WEATHER SERVICE OMAHA NE
900 AM CDT WED MAR 29 2017

NOTES: SATELLITE DATA IS BEING USED TO AUGMENT CLOUD COVER ABOVE
       12000 FEET.
       "FAIR" INDICATES FEW OR NO CLOUDS BELOW 12,000 FEET WITH NO
       SIGNIFICANT WEATHER AND/OR OBSTRUCTIONS TO VISIBILITY.

  * THESE STATIONS DO NOT REPORT WEATHER SUCH AS RAIN...SNOW OR FOG.

NEZ001>004-019>022-054>056-291500-
NEBRASKA PANHANDLE

CITY           SKY/WX    TMP DP  RH WIND       PRES   REMARKS
SCOTTSBLUFF    CLOUDY    41  37  86 W7        30.11F
ALLIANCE       CLOUDY    39  38  96 N5        30.09F
CHADRON        PTSUNNY   40  38  93 W3        30.11F
KIMBALL        CLOUDY    38  38 100 N13       30.10S WCI  30
SIDNEY         CLOUDY    37  36  96 N14       30.10R WCI  28
$$

NEZ057>060-069>072-079>082-291500-
SOUTHWEST NEBRASKA

CITY           SKY/WX    TMP DP  RH WIND       PRES   REMARKS
NORTH PLATTE   CLOUDY    43  40  89 N17G23    30.04R
IMPERIAL       CLOUDY    41  39  93 N17       30.05R
LEXINGTON      CLOUDY    43  41  93 NE12      30.00F FOG
MCCOOK         CLOUDY    43  42  97 N17G24    29.98S
OGALLALA       CLOUDY    43  40  91 N9        30.08R
$$

NEZ005>010-023>029-035>040-094-291500-
NORTH CENTRAL NEBRASKA

CITY           SKY/WX    TMP DP  RH WIND       PRES   REMARKS
VALENTINE      CLOUDY    43  40  89 N5        30.11S
AINSWORTH      CLOUDY    42  42 100 N13       30.10S FOG
BROKEN BOW     CLOUDY    44  40  85 N16       30.02F
O`NEILL        CLOUDY    44  43  97 N7        30.09R FOG
ORD            CLOUDY    44  40  85 NE12      30.03S
THEDFORD       CLOUDY    42  41  95 N10       30.08F
$$

NEZ041-046>049-061>064-073>077-083>087-291500-
SOUTH CENTRAL NEBRASKA

CITY           SKY/WX    TMP DP  RH WIND       PRES   REMARKS
GRAND ISLAND   CLOUDY    43  43 100 NE17      30.00S
AURORA         DRIZZLE   44  44 100 NE18      29.99S
HASTINGS       LGT RAIN  44  42  93 NE18G26   29.98F FOG
HEBRON         DRIZZLE   45  44  97 NE18G24   29.92F
HOLDREGE       DRIZZLE   42  41  95 NE17G25   29.97F
KEARNEY *      CLOUDY    43  39  87 N16       29.99F
YORK           LGT RAIN  45  45 100 NE17      29.98F
$$

NEZ011>018-030>034-042>045-291500-
NORTHEAST NEBRASKA

CITY           SKY/WX    TMP DP  RH WIND       PRES   REMARKS
NORFOLK        LGT RAIN  44  41  89 NE14      30.05S FOG
ALBION         CLOUDY    45  42  89 NE15      30.04F FOG
BLAIR          LGT RAIN  44  43  95 NE14      30.01S
FREMONT        DRIZZLE   45  44  98 NE9       30.02F
TEKAMAH        LGT RAIN  45  42  89 NE14      30.05F
WAYNE          LGT RAIN  45  44  99 NE17      30.08S
$$

NEZ050>053-065>068-078-088>093-291500-
SOUTHEAST NEBRASKA

CITY           SKY/WX    TMP DP  RH WIND       PRES   REMARKS
LINCOLN        LGT RAIN  46  44  93 NE17      29.98F FOG
OMAHA EPPLEY   LGT RAIN  46  41  82 NE15G22   30.02S
BEATRICE       LGT RAIN  46  46  98 NE14      29.92F
FALLS CITY     CLOUDY    47  46  97 NE15      29.89F
NEBRASKA CITY  LGT RAIN  45  45 100 NE16G22   29.95F
PLATTSMOUTH    DRIZZLE   45  42  90 NE13      29.98S
$$

NEZ044-045-051>053-067-291500-
OMAHA AREA

CITY           SKY/WX    TMP DP  RH WIND       PRES   REMARKS
OMAHA EPPLEY   LGT RAIN  46  41  82 NE15G22   30.02S
BLAIR          LGT RAIN  44  43  95 NE14      30.01S
FREMONT        DRIZZLE   45  44  98 NE9       30.02F
MILLARD        RAIN      47  45  91 NE8       30.01S
OFFUTT AFB     LGT RAIN  45  43  92 NE13G20   29.99S FOG
PLATTSMOUTH    DRIZZLE   45  42  90 NE13      29.98S
WAHOO          RAIN      45  43  94 NE16      30.00F
$$



USA.gov is the U.S. government's official web portal to all federal, state and local government web resources and services.